GW2349 Weather Reports


time (UTC)temp
C
wind
direction
speed
KPH
gust
KPH
rain 1hr
cm
rain 24hr
cm
rain mn
cm
humidity
%
barometer
mb
20260506004555 2 0 0.0 0.0 0.00 0.18 0.00 76 1003.3
20260506004043 2 0 0.0 0.0 0.00 0.18 0.00 76 1003.4
20260506003543 2 0 0.0 0.0 0.00 0.18 0.00 76 1003.2
20260506003050 3 0 0.0 0.0 0.00 0.18 0.00 76 1003.3
20260506002547 3 0 0.0 0.0 0.00 0.18 0.00 76 1003.3
20260506002042 3 0 0.0 0.0 0.00 0.18 0.00 76 1003.2
20260506001608 3 0 0.0 0.0 0.00 0.18 0.00 76 1003.2
20260506001043 3 0 0.0 0.0 0.00 0.18 0.00 76 1003.2
20260506000543 3 0 0.0 0.0 0.00 0.18 0.00 76 1003.2
20260506000049 3 0 0.0 0.0 0.00 0.18 0.00 76 1003.1
20260505235543 3 0 0.0 0.0 0.00 0.18 0.00 76 1003.2
20260505235044 3 0 0.0 0.0 0.00 0.18 0.00 76 1003.2
20260505234553 3 0 0.0 0.0 0.00 0.18 0.00 76 1003.1
20260505234043 3 0 0.0 0.0 0.00 0.18 0.00 76 1003.1
20260505233546 3 0 0.0 1.6 0.00 0.18 0.00 76 1003.0
20260505233051 3 0 0.0 4.8 0.00 0.18 0.00 76 1003.0
20260505232543 3 0 0.0 6.4 0.00 0.18 0.00 76 1003.1
20260505232043 3 339 3.2 8.0 0.00 0.18 0.00 76 1003.0
20260505231556 3 321 3.2 9.7 0.00 0.18 0.00 76 1002.9
20260505231046 3 326 3.2 9.7 0.00 0.18 0.00 76 1002.8
20260505230542 3 323 3.2 9.7 0.00 0.18 0.00 76 1002.9
20260505230056 4 329 1.6 6.4 0.00 0.18 0.00 76 1002.9
20260505225543 4 352 0.0 8.0 0.00 0.18 0.00 76 1002.9
20260505225043 4 11 3.2 14.5 0.00 0.18 0.00 75 1002.9
20260505224552 4 5 3.2 14.5 0.00 0.18 0.00 76 1002.9
20260505224042 4 352 1.6 12.9 0.00 0.18 0.00 75 1002.9
20260505223542 4 331 4.8 12.9 0.00 0.18 0.00 75 1002.9
20260505223057 4 352 3.2 11.3 0.00 0.18 0.00 75 1002.8
20260505222542 4 352 3.2 11.3 0.00 0.18 0.00 75 1002.9
20260505222042 4 352 3.2 12.9 0.00 0.18 0.00 75 1002.8
20260505221555 4 269 3.2 12.9 0.00 0.18 0.00 75 1002.8
20260505221044 4 344 4.8 12.9 0.00 0.18 0.00 75 1002.7
20260505220545 4 360 3.2 9.7 0.00 0.18 0.00 74 1002.8
20260505220051 4 348 3.2 9.7 0.00 0.18 0.00 74 1002.7
20260505215543 4 352 3.2 9.7 0.00 0.18 0.18 74 1002.7
20260505215043 4 329 3.2 9.7 0.00 0.18 0.18 73 1002.7
20260505214601 4 335 1.6 6.4 0.00 0.18 0.18 73 1002.6
20260505214043 4 9 1.6 6.4 0.00 0.18 0.18 73 1002.5
20260505213542 4 331 1.6 12.9 0.00 0.18 0.18 73 1002.5
20260505213056 4 317 1.6 12.9 0.00 0.18 0.18 73 1002.6
20260505212542 4 9 3.2 6.4 0.00 0.18 0.18 73 1002.6
20260505212043 4 282 3.2 8.0 0.00 0.18 0.18 72 1002.5
20260505211548 4 330 1.6 9.7 0.00 0.18 0.18 72 1002.5
20260505211044 4 5 3.2 9.7 0.00 0.18 0.18 72 1002.4
20260505210542 4 0 1.6 8.0 0.00 0.18 0.18 72 1002.5
20260505210056 4 315 3.2 8.0 0.00 0.18 0.18 71 1002.5
20260505205542 4 0 0.0 0.0 0.00 0.18 0.18 71 1002.4
20260505205044 4 0 0.0 0.0 0.00 0.18 0.18 71 1002.3
20260505204549 4 0 0.0 0.0 0.00 0.18 0.18 71 1002.3
20260505204043 4 0 0.0 0.0 0.00 0.18 0.18 71 1002.3
20260505203543 4 0 0.0 0.0 0.00 0.18 0.18 71 1002.3
20260505203052 4 0 0.0 0.0 0.00 0.18 0.18 70 1002.2
20260505202542 5 0 0.0 0.0 0.00 0.18 0.18 70 1002.2
20260505202047 5 0 0.0 0.0 0.00 0.18 0.18 70 1002.2
20260505201605 5 0 0.0 0.0 0.00 0.18 0.18 69 1002.2
20260505201042 5 0 0.0 0.0 0.00 0.18 0.18 69 1002.2
20260505200543 5 0 0.0 0.0 0.00 0.18 0.18 69 1002.1
20260505200056 5 0 0.0 0.0 0.00 0.18 0.18 69 1002.2
20260505195542 5 0 0.0 3.2 0.00 0.18 0.18 68 1002.1
20260505195046 5 0 0.0 3.2 0.00 0.18 0.18 68 1002.1
20260505194554 5 0 0.0 3.2 0.00 0.18 0.18 68 1002.1
20260505194043 5 360 0.0 4.8 0.00 0.18 0.18 68 1002.1
20260505193545 5 360 0.0 6.4 0.00 0.18 0.18 68 1002.1
20260505193051 5 360 1.6 6.4 0.00 0.18 0.18 68 1002.0
20260505192546 5 351 3.2 6.4 0.00 0.18 0.18 68 1002.1
20260505192044 5 352 0.0 6.4 0.00 0.18 0.18 68 1002.1
20260505191556 5 323 1.6 6.4 0.00 0.18 0.18 67 1002.1
20260505191043 5 337 1.6 8.0 0.00 0.18 0.18 67 1002.1
20260505190542 5 338 3.2 8.0 0.00 0.18 0.18 66 1002.1
20260505190112 5 352 3.2 8.0 0.00 0.18 0.18 66 1002.1
20260505185542 5 344 3.2 8.0 0.00 0.18 0.18 66 1002.1
20260505185044 5 304 0.0 6.4 0.00 0.18 0.18 65 1002.0
20260505184604 5 0 0.0 6.4 0.00 0.18 0.18 65 1001.9
20260505184043 5 332 1.6 3.2 0.00 0.18 0.18 64 1001.9
20260505183544 5 0 0.0 3.2 0.00 0.18 0.18 63 1001.9
20260505183052 5 344 1.6 3.2 0.00 0.18 0.18 62 1001.9
20260505182542 6 0 0.0 0.0 0.00 0.18 0.18 61 1001.9
20260505182042 6 0 0.0 0.0 0.00 0.18 0.18 62 1001.8
20260505181549 6 0 0.0 0.0 0.00 0.18 0.18 63 1001.8
20260505181046 6 0 0.0 0.0 0.00 0.18 0.18 64 1001.8
20260505180541 6 0 0.0 1.6 0.00 0.18 0.18 64 1001.6
20260505180054 6 0 0.0 6.4 0.00 0.18 0.18 63 1001.7
20260505175542 6 0 0.0 6.4 0.00 0.18 0.18 63 1001.6
20260505175042 6 344 1.6 6.4 0.00 0.18 0.18 63 1001.6
20260505174550 6 335 0.0 0.0 0.00 0.18 0.18 62 1001.6
20260505174043 6 0 0.0 0.0 0.00 0.18 0.18 62 1001.5
20260505173543 5 0 0.0 0.0 0.00 0.18 0.18 60 1001.4
20260505173049 5 0 0.0 0.0 0.00 0.18 0.18 60 1001.5
20260505172542 5 0 0.0 4.8 0.00 0.18 0.18 60 1001.4
20260505172042 5 0 0.0 4.8 0.00 0.18 0.18 59 1001.4
20260505171550 5 191 1.6 4.8 0.00 0.18 0.18 59 1001.4
20260505171043 6 187 0.0 4.8 0.00 0.18 0.18 59 1001.5
20260505170542 5 0 1.6 6.4 0.00 0.18 0.18 59 1001.4
20260505170057 6 185 1.6 6.4 0.00 0.18 0.18 58 1001.5
20260505165542 6 152 1.6 8.0 0.00 0.18 0.18 57 1001.5
20260505165042 6 0 0.0 9.7 0.00 0.18 0.18 56 1001.4
20260505164549 6 152 3.2 11.3 0.00 0.18 0.18 56 1001.3
20260505164042 6 114 3.2 11.3 0.00 0.18 0.18 56 1001.3
20260505163546 6 112 6.4 11.3 0.00 0.18 0.18 56 1001.3
20260505163057 6 138 3.2 8.0 0.00 0.18 0.18 56 1001.3
20260505162542 6 146 0.0 6.4 0.00 0.18 0.18 56 1001.3
20260505162043 6 0 0.0 9.7 0.00 0.18 0.18 56 1001.3
20260505161552 6 98 3.2 9.7 0.00 0.18 0.18 55 1001.3
20260505161043 6 98 4.8 12.9 0.00 0.18 0.18 55 1001.2
20260505160545 6 121 3.2 14.5 0.00 0.18 0.18 56 1001.2
20260505153104 6 111 4.8 11.3 0.00 0.18 0.18 57 1001.2
20260505152542 6 0 3.2 16.1 0.00 0.18 0.18 58 1001.2
20260505152046 6 103 6.4 16.1 0.00 0.18 0.18 58 1001.2
20260505151546 6 174 4.8 16.1 0.00 0.18 0.18 58 1001.2
20260505151042 6 247 4.8 14.5 0.00 0.18 0.18 59 1001.2
20260505150544 6 115 6.4 14.5 0.00 0.18 0.18 58 1001.2
20260505150111 6 105 6.4 17.7 0.00 0.18 0.18 57 1001.2
20260505140542 6 194 8.0 17.7 0.00 0.18 0.18 61 1001.1
20260505124623 6 117 3.2 16.1 0.00 0.30 0.18 75 1000.8
20260505124043 5 184 3.2 17.7 0.00 0.30 0.18 75 1000.8
20260505123542 5 174 6.4 17.7 0.00 0.30 0.18 73 1000.8
20260505123110 5 261 6.4 14.5 0.00 0.30 0.18 75 1000.8
20260505122542 5 150 4.8 14.5 0.00 0.30 0.18 76 1000.7
20260505122043 5 212 4.8 11.3 0.03 0.30 0.18 76 1000.7
20260505121550 5 169 4.8 14.5 0.03 0.30 0.18 77 1000.7
20260505121048 5 194 8.0 17.7 0.05 0.30 0.18 78 1000.8
20260505120544 4 198 8.0 17.7 0.05 0.30 0.18 80 1000.8
20260505120057 4 228 6.4 20.9 0.05 0.30 0.18 79 1000.8
20260505115542 4 186 6.4 20.9 0.05 0.30 0.18 81 1000.9
20260505115042 3 264 6.4 14.5 0.05 0.30 0.18 81 1001.0
20260505114600 3 254 3.2 11.3 0.05 0.30 0.18 82 1000.9
20260505114042 3 132 1.6 11.3 0.05 0.30 0.18 83 1000.8
20260505113542 3 217 1.6 9.7 0.05 0.30 0.18 80 1000.7
20260505113054 3 282 3.2 9.7 0.05 0.30 0.18 78 1000.7
20260505112542 3 260 4.8 12.9 0.03 0.28 0.15 76 1000.7
20260505112042 3 259 3.2 27.4 0.00 0.28 0.13 75 1000.8
20260505111556 4 252 11.3 32.2 0.00 0.28 0.13 74 1000.9
20260505111042 5 266 16.1 32.2 0.00 0.25 0.10 72 1000.9
20260505110541 5 257 11.3 22.5 0.00 0.25 0.10 72 1000.5
20260505102042 4 252 6.4 22.5 0.00 0.28 0.10 76 1000.1
20260505101550 4 166 9.7 30.6 0.00 0.28 0.10 76 1000.1
20260505101046 5 294 8.0 30.6 0.00 0.28 0.10 74 1000.0
20260505100542 5 169 8.0 20.9 0.00 0.28 0.10 72 999.9
20260505100054 5 187 11.3 20.9 0.03 0.28 0.10 73 999.9
20260505095541 5 204 9.7 17.7 0.03 0.30 0.10 75 999.9
20260505095043 4 117 1.6 9.7 0.03 0.30 0.10 81 999.8
20260505094552 4 166 1.6 9.7 0.05 0.30 0.10 81 999.8
20260505094042 3 268 3.2 9.7 0.05 0.30 0.10 82 999.7
20260505093544 3 171 3.2 11.3 0.05 0.30 0.10 81 999.8
20260505093050 3 174 4.8 11.3 0.05 0.30 0.10 82 999.8
20260505092545 2 167 4.8 14.5 0.05 0.30 0.10 82 1000.0
20260505092042 2 200 8.0 16.1 0.05 0.28 0.08 80 999.9
20260505091551 2 246 9.7 20.9 0.05 0.28 0.08 80 1000.0
20260505091041 3 194 8.0 20.9 0.08 0.28 0.08 80 999.9
20260505090542 3 261 6.4 17.7 0.08 0.28 0.08 81 999.7
20260505090058 3 236 4.8 9.7 0.05 0.28 0.08 81 999.7
20260505085543 3 261 1.6 9.7 0.05 0.33 0.08 81 999.6
20260505085045 2 0 0.0 11.3 0.05 0.33 0.08 81 999.6
20260505084551 2 242 3.2 12.9 0.03 0.30 0.05 80 999.5
20260505084041 3 229 4.8 12.9 0.03 0.30 0.05 80 999.5
20260505083541 3 254 3.2 12.9 0.03 0.30 0.05 80 999.5
20260505083105 3 254 4.8 22.5 0.03 0.30 0.05 80 999.5
20260505082543 3 163 8.0 22.5 0.03 0.30 0.05 80 999.5
20260505082042 3 190 8.0 22.5 0.00 0.28 0.03 79 999.5
20260505081552 3 242 6.4 14.5 0.00 0.28 0.03 82 999.4
20260505081042 2 0 0.0 9.7 0.00 0.28 0.00 86 999.2
20260505080543 2 0 3.2 9.7 0.00 0.28 0.00 86 999.2
20260505080053 2 0 0.0 4.8 0.00 0.28 0.00 85 999.2
20260505075542 2 0 0.0 6.4 0.00 0.33 0.00 85 999.2
20260505075043 2 0 1.6 6.4 0.00 0.33 0.00 85 999.1
20260505074548 2 35 0.0 6.4 0.00 0.33 0.00 85 999.1
20260505074046 2 113 3.2 6.4 0.00 0.33 0.00 86 999.1
20260505073543 2 113 4.8 6.4 0.00 0.33 0.00 86 999.1
20260505073057 1 0 0.0 1.6 0.00 0.33 0.00 85 999.1
20260505072545 1 0 0.0 1.6 0.00 0.33 0.00 85 999.2
20260505072042 1 0 0.0 3.2 0.00 0.33 0.00 85 999.2
20260505071548 1 0 0.0 3.2 0.00 0.33 0.00 84 999.3
20260505071042 1 0 0.0 6.4 0.00 0.33 0.00 84 999.2
20260505070545 1 172 0.0 11.3 0.00 0.33 0.00 85 999.1
20260505070054 1 0 1.6 11.3 0.00 0.33 0.00 84 999.2
20260505065542 1 284 1.6 8.0 0.00 0.36 0.00 84 999.2
20260505065041 1 259 1.6 9.7 0.00 0.36 0.00 84 999.1
20260505064548 1 238 3.2 9.7 0.00 0.36 0.00 84 999.0
20260505064044 1 180 3.2 11.3 0.00 0.36 0.00 84 999.0
20260505063542 2 179 4.8 14.5 0.00 0.36 0.00 83 998.9
20260505063048 2 159 6.4 14.5 0.00 0.36 0.00 83 998.9
20260505062544 2 198 4.8 16.1 0.00 0.36 0.00 83 999.0
20260505062045 2 266 8.0 16.1 0.00 0.36 0.00 82 999.1
20260505061550 2 248 8.0 16.1 0.00 0.36 0.00 81 998.9
20260505061044 2 219 8.0 22.5 0.00 0.36 0.00 81 998.8
20260505060545 2 248 9.7 22.5 0.00 0.36 0.00 81 998.8
20260505060050 2 258 8.0 24.1 0.00 0.36 0.00 81 998.7
20260505055545 2 151 4.8 24.1 0.00 0.36 0.00 82 998.6
20260505055048 2 194 1.6 20.9 0.00 0.36 0.00 82 998.5
20260505054551 2 0 3.2 9.7 0.00 0.36 0.00 82 998.6
20260505054043 2 132 1.6 8.0 0.00 0.36 0.00 82 998.5
20260505053548 2 246 0.0 8.0 0.00 0.36 0.00 82 998.5
20260505053056 2 342 3.2 14.5 0.00 0.36 0.00 82 998.6
20260505052544 2 271 4.8 17.7 0.00 0.36 0.00 83 998.7
20260505052045 2 257 4.8 17.7 0.00 0.36 0.00 82 998.6
20260505051551 2 286 9.7 17.7 0.00 0.36 0.00 82 998.6
20260505051044 2 161 8.0 14.5 0.00 0.36 0.00 82 998.7
20260505050543 2 236 6.4 14.5 0.00 0.33 0.00 82 998.7
20260505050122 2 184 6.4 14.5 0.00 0.33 0.00 82 998.6
20260505041604 2 215 3.2 14.5 0.00 0.36 0.00 78 998.6
20260505041046 2 248 8.0 14.5 0.00 0.36 0.00 78 998.6
20260505040544 2 215 4.8 16.1 0.00 0.36 0.00 78 998.6
20260505040101 2 236 6.4 16.1 0.00 0.36 0.00 78 998.6
20260505035544 2 245 3.2 11.3 0.00 0.36 0.00 79 998.6
20260505035043 2 241 4.8 12.9 0.00 0.36 0.00 79 998.6
20260505034558 2 252 6.4 14.5 0.00 0.36 0.00 80 998.5
20260505034043 2 246 8.0 16.1 0.00 0.36 0.00 80 998.5
20260505033544 2 268 8.0 16.1 0.00 0.36 0.00 80 998.4
20260505033059 2 267 8.0 17.7 0.00 0.36 0.00 81 998.4
20260505032544 2 256 8.0 20.9 0.00 0.36 0.00 81 998.3
20260505032043 2 258 9.7 20.9 0.00 0.36 0.00 82 998.3
20260505031559 2 225 11.3 20.9 0.00 0.36 0.00 81 998.2
20260505031043 2 284 6.4 22.5 0.00 0.36 0.00 79 998.3
20260505030542 2 242 9.7 22.5 0.00 0.36 0.00 80 998.1
20260505030053 2 239 9.7 22.5 0.00 0.36 0.00 81 998.2
20260505025542 2 249 12.9 22.5 0.00 0.41 0.00 81 998.1
20260505025042 1 225 4.8 16.1 0.00 0.41 0.00 82 998.1
20260505024549 1 256 4.8 9.7 0.00 0.41 0.00 82 998.1
20260505024041 1 232 3.2 9.7 0.00 0.41 0.00 81 998.2
20260505023544 1 156 4.8 11.3 0.00 0.41 0.00 80 998.1
20260505023054 2 217 3.2 11.3 0.00 0.41 0.00 80 998.1
20260505022541 1 248 1.6 12.9 0.00 0.41 0.00 80 998.2
20260505022042 2 212 3.2 20.9 0.00 0.41 0.00 80 998.1
20260505021549 2 234 4.8 27.4 0.00 0.41 0.00 80 998.1
20260505021041 2 332 12.9 27.4 0.00 0.41 0.00 80 998.3
20260505020542 2 276 9.7 20.9 0.00 0.41 0.00 82 998.2
20260505020049 2 259 12.9 20.9 0.00 0.41 0.00 83 998.1
20260505015542 2 240 11.3 20.9 0.00 0.46 0.00 83 998.2
20260505015042 2 288 6.4 16.1 0.00 0.46 0.00 84 998.2
20260505014605 2 227 8.0 16.1 0.00 0.46 0.00 84 998.2
20260505014042 2 244 9.7 17.7 0.00 0.46 0.00 84 998.2
20260505013542 2 263 8.0 17.7 0.00 0.46 0.00 84 998.2
20260505013050 2 240 9.7 20.9 0.00 0.46 0.00 84 998.3
20260505012542 1 246 8.0 20.9 0.00 0.46 0.00 84 998.1
20260505012042 1 259 8.0 16.1 0.00 0.46 0.00 84 998.3
20260505011548 1 225 6.4 16.1 0.00 0.46 0.00 85 998.2
20260505011043 1 254 4.8 16.1 0.00 0.46 0.00 85 998.2
20260505010541 1 277 4.8 12.9 0.00 0.46 0.00 84 998.3
20260505010049 1 252 4.8 12.9 0.00 0.46 0.00 84 998.3
20260505005541 1 246 4.8 17.7 0.00 0.51 0.00 84 998.2
20260505005042 2 240 6.4 19.3 0.00 0.51 0.00 84 998.3